Location: Unspecified
(0.0000°N, 0.0000°E)
Time: 22:24:49
(UTC+00:00)

FALCON 9 R/B - Visible Passes

Search period start: 06 June 2023 00:00
Search period end: 16 June 2023 00:00
Orbit: 304 x 929 km, 80.9° (Epoch: 05 June)

Date Brightness Start Highest point End Pass type
(mag) Time Alt. Az. Time Alt. Az. Time Alt. Az.
08 Jun ? 04:40:03 10° NE 04:43:06 21° E 04:46:36 10° SE visible
09 Jun ? 04:55:23 10° NNE 04:59:17 48° E 05:04:01 10° SSE visible
10 Jun ? 05:11:24 10° N 05:15:32 73° W 05:20:35 10° S visible
11 Jun ? 03:53:38 10° E 03:54:28 10° E 03:55:20 10° E visible
11 Jun ? 05:27:59 10° NW 05:31:51 33° W 05:36:25 10° SSW visible
12 Jun ? 04:06:53 10° NE 04:10:25 24° E 04:14:28 10° SE visible
13 Jun ? 04:22:04 10° N 04:26:21 52° E 04:31:30 10° SSE visible
14 Jun ? 04:37:52 10° NNW 04:42:20 73° W 04:47:44 10° S visible
15 Jun ? 03:19:05 10° ENE 03:21:00 12° E 03:23:01 10° ESE visible
15 Jun ? 04:54:10 10° NNW 04:58:24 35° W 05:03:20 10° SSW visible
